NOAA NWS Hourly Roundups by Site

Regional Weather Roundup for Omaha, NE

To Select Another Site Choose from List

Select Site:  

000
ASUS43 KOAX 240510
RWRNE

WEATHER ROUNDUP FOR NEBRASKA
NATIONAL WEATHER SERVICE OMAHA NE
1100 PM CST SAT FEB 23 2019

NOTES: SATELLITE DATA IS BEING USED TO AUGMENT CLOUD COVER ABOVE
       12000 FEET.
       "FAIR" INDICATES FEW OR NO CLOUDS BELOW 12,000 FEET WITH NO
       SIGNIFICANT WEATHER AND/OR OBSTRUCTIONS TO VISIBILITY.


NEZ001>004-019>022-054>056-240600-
NEBRASKA PANHANDLE

CITY           SKY/WX    TMP DP  RH WIND       PRES   REMARKS
SCOTTSBLUFF    FAIR      17  13  84 NW7       30.05R WCI   8
ALLIANCE       FAIR      10   6  84 W3        30.03R
CHADRON        FAIR      20  10  65 W8        30.05R WCI  10
GORDON         FAIR      12   4  69 N6        30.01S WCI   3
KIMBALL        FAIR      23   9  54 NW9       30.02S WCI  13
SIDNEY         FAIR      14   7  73 NW12      30.04R WCI   0
$$

NEZ057>060-069>072-079>082-240600-
SOUTHWEST NEBRASKA

CITY           SKY/WX    TMP DP  RH WIND       PRES   REMARKS
NORTH PLATTE   FAIR      14   7  73 NW6       30.03R WCI   5
IMPERIAL       FAIR      25  10  53 NW16      30.05R WCI  12
LEXINGTON      FAIR      24  14  64 NW21      30.01R WCI  10
MCCOOK         FAIR      20  12  71 W10       30.05R WCI   9
OGALLALA       FAIR      15  10  80 SW6       30.06R WCI   6
$$

NEZ005>010-023>029-035>040-094-240600-
NORTH CENTRAL NEBRASKA

CITY           SKY/WX    TMP DP  RH WIND       PRES   REMARKS
VALENTINE      FAIR      23  12  62 NW20G36   30.00R WCI   8
AINSWORTH      FAIR      21  13  70 NW20      29.97R WCI   6
BROKEN BOW     FAIR      24  11  57 NW24      29.97R WCI   8
O`NEILL        FAIR      22  14  73 NW20      29.93R WCI   7
ORD            FAIR      23  13  65 NW21G30   29.94R WCI   8
THEDFORD       FAIR      22  13  65 NW13G20   30.01R WCI  10
$$

NEZ041-046>049-061>064-073>077-083>087-240600-
SOUTH CENTRAL NEBRASKA

CITY           SKY/WX    TMP DP  RH WIND       PRES   REMARKS
GRAND ISLAND   FAIR      24  13  62 NW21      29.93R WCI   9
AURORA         FAIR      23  16  75 NW18      29.92R WCI   8
HASTINGS       FAIR      23  14  68 NW18      29.94R WCI   9
HEBRON         FAIR      25  17  71 NW10      29.93R WCI  15
HOLDREGE       FAIR      25  16  68 NW20G29   29.99R WCI  11
KEARNEY        FAIR      24  14  65 NW16      29.97R WCI  11
YORK           FAIR      23  16  74 CALM      29.90R
$$

NEZ011>018-030>034-042>045-240600-
NORTHEAST NEBRASKA

CITY           SKY/WX    TMP DP  RH WIND       PRES   REMARKS
NORFOLK        FAIR      20  13  74 NW21      29.85R WCI   4
ALBION         FAIR      23  15  70 NW22      29.89R WCI   8
BLAIR            N/A    N/A N/A N/A MISG        N/A
COLUMBUS       FAIR      19  16  88 NW15      29.89R WCI   5
FREMONT          N/A     24  20  86 NW25G31   29.84R WCI   7
TEKAMAH        CLOUDY    21  17  84 NW24G35   29.80R FOG     WCI   4
WAYNE          FAIR      17  11  75 NW17G24   29.85R WCI   2
$$

NEZ050>053-065>068-078-088>093-240600-
SOUTHEAST NEBRASKA

CITY           SKY/WX    TMP DP  RH WIND       PRES   REMARKS
LINCOLN        LGT SNOW  24  17  74 NW15G24   29.88R WCI  11
OMAHA EPPLEY   MOCLDY    24  17  74 NW25G33   29.77R BLWGSNOWWCI   8
BEATRICE       FAIR      26  20  80 NW18      29.87R WCI  12
FALLS CITY     MIX PCPN  26  22  84 NW29G40   29.79R FOG     WCI  10
NEBRASKA CITY  CLOUDY    24  21  87 NW28G36   29.77R FOG     WCI   8
PLATTSMOUTH      N/A     24  21  89 NW23G31   29.77R WCI   8
$$

NEZ044-045-051>053-067-240600-
OMAHA AREA

CITY           SKY/WX    TMP DP  RH WIND       PRES   REMARKS
OMAHA EPPLEY   MOCLDY    24  17  74 NW25G33   29.77R BLWGSNOWWCI   8
BLAIR            N/A    N/A N/A N/A MISG        N/A
FREMONT          N/A     24  20  86 NW25G31   29.84R WCI   7
MILLARD        MOCLDY    25  19  79 NW22G31   29.80R WCI  10
OFFUTT AFB     FLURRIES  24  24 100 W25G32    29.77R WCI   8
PLATTSMOUTH      N/A     24  21  89 NW23G31   29.77R WCI   8
WAHOO          FAIR      22  19  86 NW22G30   29.84R WCI   6
$$



 

View Past Reports for Omaha, NE.

Products Courtesy of NOAA-NWS
NWS Information Parsing Script by Ken True at Saratoga Weather - Script by SE Lincoln Weather.